BEIDOU-3 IGSO-2

Last updated on Wed Dec 17 2025 00:02:53 GMT+0000 (Coordinated Universal Time)

1 44337U 19035A 25349.86719976 -.00000035 00000+0 00000+0 0 9992 2 44337 55.2266 160.4736 0037344 202.4670 153.4937 1.00270480 23827
UTC large
Height (km)
Speed (km/s)
/
Latitude / Longitude
Inclination (degrees)
Orbital Period (minutes)
Azimuth
Elevation
Range (km)
Doppler Factor

Next 0 passes for location: London (51.5072 / 0.1276)

Sorry there are no passes over London.